カタログに戻る

SL-8 R/B

運用中PO
NORAD 21131·ROCKET BODY·🇷🇺 Russia

打ち上げ Feb 26, 1991 から Plesetsk Cosmodrome

Loading…

次のパス (今後24時間)

TLE

最新Source: Space-Track

元期: Sep 14, 2026, 13:33 UTC

1 21131U 91013B   26257.56467291  .00000046  00000-0  29308-4 0  9990
2 21131  82.8251 119.9010 0062659 207.9751 151.8036 13.80631877790404

AllMySatでSL-8 R/Bをリアルタイム追跡

Download on the App Store